Regional Weather Roundup
Issued by NWS

Home | Current Version | Previous Version | Text Only | Print | Product List | Glossary On
Versions: 1 2 3 4 5 6 7 8 9 10 11 12 13 14 15 16 17 18 19 20 21 22 23 24 25 26 27 28 29 30 31 32 33 34 35 36 37 38 39 40 41 42 43 44 45 46 47 48 49 50
000
ASUS44 KEWX 202303
RWRTX
SOUTH TEXAS REGIONAL WEATHER ROUNDUP
NATIONAL WEATHER SERVICE AUSTIN/SAN ANTONIO TX
500 PM CST FRI JAN 20 2017

NOTE: "FAIR" INDICATED FEW OR NO CLOUDS BELOW 12,000 FEET WITH NO
SIGNIFICANT WEATHER AND/OR OBSTRUCTIONS TO VISIBILITY.

* - THESE STATIONS ARE NOT NWS OR FAA STATIONS...AND ARE NOT SUBJECT
    TO NWS AND FAA QUALITY CONTROL.

TXZ171-172-183>190-210000-
TEXAS HILL COUNTRY AND EDWARDS PLATEAU

CITY           SKY/WX    TMP DP  RH WIND       PRES   REMARKS
JUNCTION       SUNNY     74  32  21 W13       29.68R
*LLANO         SUNNY     75  34  22 W7        29.69S
BURNET         SUNNY     74  34  23 W5        29.68F
*HORSESHOE BAY SUNNY     76  35  22 CALM      29.66S
*KERRVILLE     SUNNY     74  46  36 S9        29.68S
*FREDERICKSBRG SUNNY     74  32  20 SW3       29.67F
*ROCKSPRINGS   SUNNY     72  36  26 W6        29.73S
*BOERNE STAGE  SUNNY     70  52  52 S6        29.69S
*CASTROVILLE   SUNNY     74  49  39 S5        29.69S
HONDO          SUNNY     76  47  35 S6        29.67F
*UVALDE        SUNNY     74  46  37 CALM      29.68R
DEL RIO        SUNNY     76  33  21 E7        29.64F
LAUGHLIN AFB   NOT AVBL
CARRIZO SPRGS  SUNNY     77  50  38 S6        29.65F
*EAGLE PASS    CLEAR     79  43  27 SE9       29.65S
$$

TXZ173-191>194-202-209-217>225-228-210000-
CENTRAL AND SOUTH CENTRAL TEXAS

CITY           SKY/WX    TMP DP  RH WIND       PRES   REMARKS
GEORGETOWN     SUNNY     75  37  25 W6        29.66
AUSTIN/BERGSTM MOSUNNY   76  47  35 SE6       29.65F
AUSTIN/MABRY   SUNNY     73  49  42 CALM      29.67F
*AUSTIN/EXEC   SUNNY     73  46  38 CALM      29.67S
*LAGO VISTA    SUNNY     72  45  38 SE5       29.67F
SAN MARCOS     SUNNY     73  52  46 CALM      29.67F
NEW BRAUNFELS  SUNNY     73  53  49 SE5       29.65S
RANDOLPH AFB   SUNNY     73  56  54 SE5       29.66S
PT SAN ANTONIO SUNNY     74  50  42 CALM      29.65F
SAN ANTONIO    PTSUNNY   74  51  44 VRB3      29.67F
STINSON FIELD  SUNNY     75  49  39 CALM      29.64F
*PLEASANTON    SUNNY     75  49  39 CALM      29.67R
*LA GRANGE     MOCLDY    72  60  64 SE7       29.64F
*GIDDINGS      MOCLDY    72  50  46 CALM      29.68R
*GONZALES      PTSUNNY   74  55  49 SE7       29.65R
$$

TXZ163>164-176>182-195>201-210>213-226-227-235-210000-
SOUTHEAST TEXAS

CITY           SKY/WX    TMP DP  RH WIND       PRES   REMARKS
COLLEGE STN    MOCLDY    70  54  56 SE7       29.66F
*BRYAN         MOCLDY    69  52  54 SE5       29.69R
*CALDWELL      NOT AVBL
*CROCKETT      MOCLDY    68  55  64 SE3       29.72S
*BRENHAM       LGT RAIN  68  59  73 S6        29.70R
HUNTSVILLE     MOCLDY    69  55  60 CALM      29.68S
CONROE         MOCLDY    66  61  84 CALM      29.69S
HOUSTON BUSH   CLOUDY    69  64  84 N3        29.70R
HOUSTON HOBBY  CLOUDY    73  66  78 SE8       29.68F
*HOUSTON SW AP LGT RAIN  69  67  90 SE6       29.67F
PEARLAND       CLOUDY    75  66  73 SE12      29.70F
HOUSTON HOOKS  LGT RAIN  71  62  73 SE10      29.65F
ELLINGTON FLD  NOT AVBL
SUGAR LAND     TSTM      70  63  78 CALM      29.67S
*HOUSTON EXEC  LGT RAIN  66  64  94 NW7       29.72R
*CLEVELAND MUN CLOUDY    68  64  86 CALM      29.70R
*WHARTON       CLOUDY    63  61  92 NW6       29.70R
*COLUMBUS      MOCLDY    67  64  87 CALM      29.69F
*EAGLE LAKE    LGT RAIN  66  65  97 CALM      29.68F
$$

TXZ214>216-236>238-210000-
THE UPPER TEXAS COAST

CITY           SKY/WX    TMP DP  RH WIND       PRES   REMARKS
*ORANGE        MOCLDY    70  65  83 S8        29.74R
PORT ARTHUR    CLOUDY    71  64  78 S7        29.72R
GALVESTON      CLOUDY    70  66  87 E8        29.71S
ANGLETON       CLOUDY    72  66  81 E10       29.68F
*BAY CITY      CLOUDY    72  68  87 SE7       29.68F
PALACIOS       CLOUDY    71  68  90 SE9       29.68R
$$

TXZ229>234-239>247-210000-
TEXAS COASTAL BEND AND RIO GRANDE PLAINS

CITY           SKY/WX    TMP DP  RH WIND       PRES   REMARKS
VICTORIA       LGT RAIN  66  64  93 S3        29.69F FOG
*BEEVILLE      PTSUNNY   58  58 100 SE9       29.66F
ROCKPORT       LGT RAIN  67  65  93 N8        29.67F FOG
*PORT ARANSAS  CLOUDY    67  65  96 N7        29.67S FOG
*PORT LAVACA   CLOUDY    68  67  99 CALM      29.69F FOG
*INGLESIDE     CLOUDY    67  65  94 N8        29.68S FOG
CORPUS CHRISTI CLOUDY    66  65  96 N8        29.68S FOG
CORPUS NAS     FOG       65  65 100 NW12      29.68R VSB 1/4
*ROBSTOWN      CLOUDY    67  67 100 N6        29.69R
ALICE          CLOUDY    68  66  93 NE3       29.66F
KINGSVILLE NAS CLOUDY    67  67 100 NE6       29.67F
COTULLA        SUNNY     78  52  40 SE5       29.67S
*FAITH RANCH   SUNNY     77  57  50 VRB5      29.66F
LAREDO         SUNNY     74  57  55 MISG      29.69S
$$

TXZ248>255-210000-
DEEP SOUTH TEXAS

CITY           SKY/WX    TMP DP  RH WIND       PRES   REMARKS
BROWNSVILLE    CLOUDY    80  68  66 W8        29.66R
PORT ISABEL    CLOUDY    77  71  82 NW10      29.65R HAZE
*SOUTH PADRE   NOT AVBL
HARLINGEN      PTSUNNY   75  70  84 NW8       29.65S
*HEBBRONVILLE  CLOUDY    68  64  84 SE5       29.68S
MCALLEN        PTSUNNY   80  64  58 CALM      29.67S
*WESLACO       CLOUDY    75  66  74 N3        29.65F
FALFURRIAS     CLOUDY    69  65  89 CALM      29.67S
EDINBURG       CLOUDY    76  66  71 N5        29.67S
*ZAPATA        CLOUDY    76  56  50 N6        29.66S
$$

TXZ213>215-236>238-242>244-246-247-251-254-255-210000-
CMAN STATIONS

STATION/POSITION TIME  TEMP    WIND        PRES    WAVE
                       AIR SEA DIR/SP/G            HT/PER
                 (UTC) (F)     (DEG/KT/KT) (MB)    (FT/S)
SABINE PASS      2230   65 67  140/  9/ 10 1007.7
SEA RIM ST PARK  2200   64     130/  6/  7 1006.6
NORTH JETTY/GLS  2230   68 63   60/  5/  5   N/A
EAGLE POINT      2230   68 69  150/ 10/ 11 1005.9
MORGANS POINT    2230   69 65  130/  8/ 12 1005.8
PORT O`CONNOR    2230   65      90/  2/  3 1004.7
PORT ARANSAS     2200   64 64   10/  6/  7 1004.7
MALAQUITE BEACH  2230   67 65  350/  8/  9 1005.0
BAFFIN BAY       2230   67 69  310/ 10/ 15 1004.7
PORT ISABEL      2230   76 69  150/  7/ 10 1004.0
$$

GMZ080-GMZ150>470-210000-
OFFSHORE BUOY REPORTS

STATION/POSITION TIME  TEMP    WIND        PRES    WAVE
                       AIR SEA DIR/SP/G            HT/PER
                 (UTC) (F)     (DEG/KT/KT) (MB)    (FT/S)
20 E GALVESTON   2150   67 67  110/ 10/ 10 1006.0    2/ 6
90 E PT ARANSAS  2150   74 74  140/ 12/ 16 1004.9    3/ 7
35 NE PT MANSFLD 2150   72     150/ 10/ 12 1003.8    3/ 7
200 E PT ISABEL  2150   76 75  140/ 14/ 16 1006.0    4/ 6
$$




USA.gov is the U.S. government's official web portal to all federal, state and local government web resources and services.